Weather History for Nan, Thailand

Change the Weather History Date:

Monday, February 18, 2013

  Actual Average Record
Temperature  
Mean Temperature 82 °F -  
Max Temperature 94 °F 94 °F - ()
Min Temperature 69 °F 63 °F - ()
Cooling Degree Days 16    
Growing Degree Days 32 (Base 50)    
Moisture  
Dew Point 66 °F    
Average Humidity 63    
Maximum Humidity 100    
Minimum Humidity 36    
Precipitation  
Precipitation T in 0.03 in - ()
Sea Level Pressure  
Sea Level Pressure 29.78 in    
Wind  
Wind Speed 2 mph ()    
Max Wind Speed 8 mph    
Max Gust Speed -    
Visibility 4.5 miles    
Events      
T = Trace of Precipitation, MM = Missing Value Source: Averaged Metar Reports

Daily Weather History Graph

Daily Weather History Graph

Search for Another Location

Airport:

Trip Planner

Search our weather history database for the weather conditions in past years. The results will help you decide how hot, cold, wet, or windy it might be!

Date:

Astronomy

Feb. 18, 2013 Rise Set
Actual Time 6:43 AM ICT 6:18 PM ICT
Civil Twilight 6:21 AM ICT 6:40 PM ICT
Nautical Twilight 5:55 AM ICT 7:06 PM ICT
Astronomical Twilight 5:29 AM ICT 7:32 PM ICT
Moon 12:02 PM ICT (2/18) 12:35 AM ICT (2/18)
Length of Visible Light 12h 19m
Length of Day
11h 35m
First Quarter, 53% of the Moon is Illuminated
Feb 18
First Quarter
Feb 26
Full
Mar 5
Last Quarter
Mar 12
New
Mar 20
First Quarter

Hourly Weather History & Observations

Time (ICT) Temp. Heat Index Dew Point Humidity Pressure Visibility Wind Dir Wind Speed Gust Speed Precip Events Conditions
1:00 AM 74 °F - 70 °F 82% 29.80 in 6 mi Calm Calm - -  
7:00 AM 71 °F - 68 °F 89% 29.83 in 2 mi Calm Calm - -   Mist
7:00 AM 69.8 °F - 69.8 °F 100% 29.83 in 1.6 mi Variable 2.3 mph - N/A   Overcast
8:00 AM 69.8 °F - 69.8 °F 100% 29.83 in 1.6 mi Variable 2.3 mph - N/A   Overcast
9:00 AM 71.6 °F - 71.6 °F 100% 29.86 in 1.6 mi Variable 2.3 mph - N/A   Overcast
10:00 AM 75.2 °F - 71.6 °F 89% 29.86 in 1.9 mi Variable 3.5 mph - N/A   Overcast
12:30 PM 87.8 °F 89.4 °F 64.4 °F 46% 29.80 in 2.5 mi Variable 3.5 mph - N/A   Haze
1:00 PM 89 °F - 71 °F 46% 29.76 in 5 mi Calm Calm - -   Haze
1:00 PM 89.6 °F 91.1 °F 64.4 °F 43% 29.77 in 3.7 mi Variable 3.5 mph - N/A   Scattered Clouds
1:30 PM 89.6 °F 91.1 °F 64.4 °F 43% 29.77 in 3.7 mi Variable 3.5 mph - N/A   Scattered Clouds
2:00 PM 93.2 °F 94.9 °F 64.4 °F 38% 29.74 in 4.3 mi Variable 3.5 mph - N/A   Scattered Clouds
3:00 PM 91.4 °F 92.1 °F 62.6 °F 38% 29.71 in 6.2 mi SSW 8.1 mph - N/A   Scattered Clouds
4:00 PM 93.2 °F 94.1 °F 62.6 °F 36% 29.71 in 6.2 mi SSE 8.1 mph - N/A   Scattered Clouds
5:00 PM 89.6 °F 90.1 °F 62.6 °F 40% 29.71 in 6.2 mi SSE 8.1 mph - N/A   Mostly Cloudy
6:00 PM 82.4 °F 82.9 °F 60.8 °F 48% 29.74 in 6.2 mi North 6.9 mph - N/A   Mostly Cloudy
7:00 PM 85 °F - 69 °F 51% 29.73 in 6 mi Calm Calm - -   Partly Cloudy
7:00 PM 80.6 °F 81.5 °F 60.8 °F 51% 29.74 in 6.2 mi Variable 2.3 mph - N/A   Mostly Cloudy
8:00 PM 78.8 °F - 64.4 °F 61% 29.77 in 6.2 mi North 4.6 mph - N/A   Scattered Clouds
9:00 PM 77.0 °F - 66.2 °F 69% 29.80 in 6.2 mi North 3.5 mph - N/A   Scattered Clouds
10:00 PM 73.4 °F - 68.0 °F 83% 29.80 in 6.2 mi NNE 2.3 mph - N/A   Scattered Clouds